DW0268 Weather Reports


Display with metric or nautical units.
time (UTC)temp
F
wind
direction
speed
MPH
gust
MPH
rain 1hr
in
rain 24hr
in
rain mn
in
humidity
%
barometer
mb
20260510081517 62 174 1.0 4.0 0.00 0.00 0.00 77 1015.0
20260510080016 62 186 1.0 5.0 0.00 0.00 0.00 78 1015.0
20260510074516 62 209 3.0 5.0 0.00 0.00 0.00 79 1014.9
20260510073011 63 207 2.0 6.0 0.00 0.00 0.00 76 1014.9
20260510071510 63 197 3.0 5.0 0.00 0.00 0.00 76 1014.9
20260510070008 63 209 3.0 5.0 0.00 0.00 0.00 75 1014.9
20260510064507 64 221 4.0 5.0 0.00 0.00 0.00 75 1015.2
20260510063005 64 221 3.0 5.0 0.00 0.00 0.00 73 1015.2
20260510061501 65 221 3.0 5.0 0.00 0.00 0.00 71 1015.1
20260510060059 66 221 4.0 5.0 0.00 0.00 0.00 70 1015.2
20260510054558 66 223 6.0 7.0 0.00 0.00 0.00 69 1015.0
20260510053057 66 207 4.0 6.0 0.00 0.00 0.00 70 1015.0
20260510051558 66 213 4.0 6.0 0.00 0.00 0.00 70 1014.9
20260510050056 66 209 4.0 7.0 0.00 0.00 0.00 68 1014.7
20260510044614 66 209 4.0 7.0 0.00 0.00 0.00 68 1014.6
20260510043051 66 213 5.0 7.0 0.00 0.00 0.00 68 1014.7
20260510041552 67 210 5.0 7.0 0.00 0.00 0.00 64 1014.7
20260510040049 68 197 6.0 8.0 0.00 0.00 0.00 59 1014.7
20260510034549 68 184 4.0 6.0 0.00 0.00 0.00 60 1014.6
20260510033047 68 171 3.0 5.0 0.00 0.00 0.00 59 1014.6
20260510031546 68 192 5.0 7.0 0.00 0.00 0.00 62 1014.6
20260510030044 70 211 4.0 7.0 0.00 0.00 0.00 56 1014.3
20260510024543 71 198 5.0 7.0 0.00 0.00 0.00 54 1014.3
20260510023048 72 186 6.0 7.0 0.00 0.00 0.00 51 1014.2
20260510021542 73 180 4.0 7.0 0.00 0.00 0.00 51 1014.1
20260510020040 72 182 4.0 7.0 0.00 0.00 0.00 55 1013.8
20260510014540 72 205 3.0 5.0 0.00 0.00 0.00 59 1013.5
20260510013037 74 210 5.0 7.0 0.00 0.00 0.00 53 1013.4
20260510011538 74 211 4.0 6.0 0.00 0.00 0.00 53 1013.3
20260510010036 76 207 4.0 6.0 0.00 0.00 0.00 47 1013.0
20260510004536 77 218 4.0 5.0 0.00 0.00 0.00 49 1012.8
20260510003034 79 192 2.0 5.0 0.00 0.00 0.00 40 1012.7
20260510001533 81 180 2.0 5.0 0.00 0.00 0.00 38 1012.5
20260510000032 81 189 2.0 4.0 0.00 0.00 0.00 37 1012.6
20260509234531 82 155 2.0 6.0 0.00 0.00 0.00 35 1012.5
20260509233029 82 211 1.0 3.0 0.00 0.00 0.00 35 1012.4
20260509231531 82 216 4.0 9.0 0.00 0.00 0.00 34 1012.5
20260509230026 82 234 5.0 9.0 0.00 0.00 0.00 36 1012.4
20260509224529 82 360 4.0 6.0 0.00 0.00 0.00 35 1012.4
20260509223025 82 279 4.0 9.0 0.00 0.00 0.00 33 1012.3
20260509221526 82 171 2.0 9.0 0.00 0.00 0.00 35 1012.3
20260509220021 82 247 3.0 6.0 0.00 0.00 0.00 35 1012.3
20260509214520 82 232 7.0 12.0 0.00 0.00 0.00 34 1012.3
20260509213017 82 221 0.0 6.0 0.00 0.00 0.00 35 1012.3
20260509211517 82 360 5.0 8.0 0.00 0.00 0.00 35 1012.2
20260509210014 81 360 2.0 9.0 0.00 0.00 0.00 37 1012.1
20260509204513 81 292 7.0 11.0 0.00 0.00 0.00 40 1012.2
20260509203019 82 217 2.0 8.0 0.00 0.00 0.00 40 1012.3
20260509201510 81 360 2.0 11.0 0.00 0.00 0.00 43 1012.6
20260509200008 81 241 5.0 9.0 0.00 0.00 0.00 44 1012.7
20260509194505 80 140 1.0 11.0 0.00 0.00 0.00 47 1013.1
20260509193003 80 219 4.0 7.0 0.00 0.00 0.00 48 1013.2
20260509191502 81 217 4.0 8.0 0.00 0.00 0.00 47 1013.3
20260509190106 79 230 1.0 4.0 0.00 0.00 0.00 52 1013.5
20260509184600 78 234 5.0 11.0 0.00 0.00 0.00 52 1013.6
20260509183055 78 173 2.0 5.0 0.00 0.00 0.00 52 1013.5
20260509181559 77 108 1.0 3.0 0.00 0.00 0.00 54 1013.5
20260509180058 76 306 3.0 6.0 0.00 0.00 0.00 55 1013.5
20260509174549 77 55 2.0 4.0 0.00 0.00 0.00 57 1013.4
20260509173046 75 298 2.0 7.0 0.00 0.00 0.00 58 1013.6
20260509171543 74 318 4.0 8.0 0.00 0.00 0.00 62 1013.7
20260509170041 73 277 2.0 6.0 0.00 0.00 0.00 67 1013.9
20260509164539 72 277 2.0 8.0 0.00 0.00 0.00 68 1013.8
20260509163038 72 300 2.0 5.0 0.00 0.00 0.00 68 1013.9
20260509161536 71 304 4.0 8.0 0.00 0.00 0.00 70 1013.8
20260509160032 71 306 5.0 8.0 0.00 0.00 0.00 70 1013.8
20260509154530 70 355 3.0 8.0 0.00 0.00 0.00 72 1013.7
20260509153026 69 266 5.0 10.0 0.00 0.00 0.00 75 1013.6
20260509151524 68 302 3.0 7.0 0.00 0.00 0.00 77 1013.6
20260509150021 67 293 2.0 6.0 0.00 0.00 0.00 79 1013.5
20260509144530 67 360 3.0 8.0 0.00 0.00 0.00 80 1013.5
20260509143017 66 271 5.0 8.0 0.00 0.00 0.00 81 1013.7
20260509141514 65 229 3.0 8.0 0.00 0.00 0.00 84 1013.5
20260509140010 64 235 2.0 8.0 0.00 0.00 0.00 85 1013.4
20260509134509 63 219 4.0 7.0 0.00 0.00 0.00 86 1013.3
20260509133012 62 232 2.0 5.0 0.00 0.00 0.00 89 1013.1
20260509131506 61 360 2.0 4.0 0.00 0.00 0.00 89 1013.0
20260509130005 60 221 2.0 4.0 0.00 0.00 0.00 90 1012.9
20260509124502 59 284 1.0 2.0 0.00 0.00 0.00 91 1012.5
20260509123001 58 285 0.0 0.0 0.00 0.00 0.00 92 1012.5
20260509121600 57 285 1.0 3.0 0.00 0.00 0.00 92 1012.3
20260509114558 56 285 1.0 3.0 0.00 0.00 0.00 92 1012.1
20260509113106 56 284 1.0 4.0 0.00 0.00 0.00 92 1011.9
20260509111654 56 301 3.0 5.0 0.00 0.00 0.00 92 1011.8
20260509110053 56 303 3.0 5.0 0.00 0.00 0.00 91 1011.7
20260509104552 56 302 4.0 7.0 0.00 0.00 0.00 91 1011.6
20260509103051 56 274 3.0 4.0 0.00 0.00 0.00 92 1011.4
20260509101549 56 215 2.0 4.0 0.00 0.00 0.00 91 1011.4
20260509100047 57 215 3.0 7.0 0.00 0.00 0.00 91 1011.3
20260509094545 57 210 5.0 7.0 0.00 0.00 0.00 91 1011.2
20260509093043 58 207 4.0 5.0 0.00 0.00 0.00 90 1011.2
20260509091541 58 201 3.0 6.0 0.00 0.00 0.00 89 1011.2
20260509090038 59 222 3.0 4.0 0.00 0.00 0.00 88 1011.4
20260509084538 59 222 4.0 7.0 0.00 0.00 0.00 88 1011.3
20260509083039 59 238 3.0 5.0 0.00 0.00 0.00 87 1011.2